Dewpoint
52 51 52 55 54 56 56 57 57 57 57 57 56 56 56 55 56 57 57 57 55 55 56 54 54 52 51 53 53 50 49 46 45 41 41 41 43 45 44 47 47 50 52
52 51 51 53 54 55 55 56 57 57 57 57 57 56 55 53 54 56 58 57 57 56 57 57 56 55 54 54 55 52 49 48 46 43 43 41 41 41 42 42 45 48 49
51 51 51 52 53 54 55 55 56 56 56 57 56 55 53 51 50 52 55 56 57 55 56 58 58 58 58 54 55 54 52 49 47 47 45 42 43 43 43 44 42 44 46
50 51 51 51 52 53 54 54 56 56 56 57 55 53 52 51 50 50 52 52 55 57 57 58 58 58 58 58 57 54 54 53 50 46 44 48 46 43 42 43 44 43 43
50 51 52 51 51 53 53 54 55 55 56 55 55 53 53 52 52 51 51 51 53 54 55 57 58 58 58 58 58 57 55 54 54 50 48 47 46 46 46 46 43 42 43
48 50 52 52 51 51 52 53 53 54 54 55 54 54 53 52 51 50 50 50 50 54 55 54 57 58 59 59 59 58 57 56 54 52 51 48 48 45 44 44 45 43 43
48 49 51 51 51 50 50 51 52 52 54 54 54 54 54 53 52 52 51 52 52 53 54 55 56 57 58 59 59 58 58 57 56 54 53 52 51 50 47 46 45 43 44
48 49 50 51 51 51 51 51 52 52 53 54 53 53 53 52 52 52 52 53 53 53 54 55 56 56 57 57 58 58 58 58 57 56 55 53 52 52 51 48 46 43 45
44 48 50 51 52 51 51 52 52 52 52 53 54 54 53 52 52 53 53 54 54 53 54 55 55 56 57 57 58 58 58 57 57 56 55 53 53 54 53 50 48 47 43
42 47 50 51 52 52 51 52 52 51 52 53 53 53 53 53 53 53 53 53 54 54 54 55 56 56 57 57 57 58 58 57 56 56 54 53 54 54 51 49 48 48 47
40 46 49 51 51 52 51 51 51 51 52 53 54 54 54 54 53 53 52 52 52 52 53 54 55 56 56 57 58 58 58 55 56 55 54 53 53 51 50 49 46 45 45
36 43 48 50 51 51 51 50 51 50 52 52 53 54 54 53 53 53 53 54 53 53 52 53 54 55 56 57 57 57 56 54 54 54 52 52 51 50 49 47 45 44 43
31 40 46 49 50 51 51 50 51 50 51 51 52 53 53 54 52 53 53 54 54 54 54 54 55 55 55 56 57 56 54 53 54 54 52 50 49 48 46 45 44 43 42
32 32 42 47 49 50 51 51 51 51 50 49 50 51 52 52 53 53 53 54 54 54 54 55 55 56 56 56 55 55 55 54 53 52 49 48 47 47 44 43 43 41 39
32 32 36 42 46 49 51 52 52 52 51 49 49 50 51 52 52 53 54 54 54 54 55 56 56 56 56 55 54 53 52 51 49 48 47 47 46 43 42 42 40 39 37
33 33 34 37 43 46 49 51 52 53 52 51 50 50 51 51 52 52 53 54 55 55 56 56 56 57 56 48 46 49 51 50 47 45 43 43 41 39 38 37 36 37 34
34 34 34 35 39 43 47 49 51 53 53 52 52 52 52 52 54 53 53 54 55 56 57 57 56 55 54 44 44 43 48 46 45 42 40 38 36 35 33 31 30 29 27
35 36 36 36 38 43 44 47 48 51 53 53 53 53 53 53 54 54 54 56 56 56 55 53 51 49 47 41 41 41 44 42 41 41 38 36 33 31 29 25 22 20 20
36 35 36 37 38 40 45 46 47 49 50 52 53 54 54 54 55 55 52 49 48 46 45 45 45 44 41 39 38 38 37 35 34 34 33 32 30 31 29 23 21 21 22
43 38 35 37 37 38 48 49 49 50 50 50 52 54 55 53 52 48 46 43 42 40 39 38 39 38 38 37 37 36 33 31 30 29 29 29 29 29 26 23 21 20 21
40 38 38 39 43 48 50 51 53 53 53 52 52 51 51 48 45 42 41 39 36 34 33 32 32 34 35 35 35 35 32 29 27 25 24 26 27 27 26 25 22 21 19
43 45 46 47 49 51 51 51 49 48 48 46 45 44 43 43 41 39 37 36 34 32 30 29 28 28 30 32 32 31 30 29 26 22 22 26 27 27 23 22 23 21 20
43 45 46 46 47 48 47 45 44 45 43 42 41 42 41 38 38 36 35 34 33 31 30 29 27 25 25 25 27 27 26 24 23 23 24 26 25 23 21 21 21 19 18
41 42 43 43 43 44 45 44 44 43 41 38 37 36 35 34 35 34 34 33 32 31 30 28 25 23 22 22 22 22 23 23 23 24 23 22 21 20 19 18 17 15 15
39 39 39 39 39 39 39 40 40 38 36 34 33 32 31 30 30 30 31 31 32 32 31 29 26 26 23 21 21 21 22 23 23 22 21 19 17 16 16 15 14 14 13
32 32 32 33 33 34 33 34 35 34 34 32 31 31 30 30 29 27 27 30 29 28 27 26 25 25 26 27 27 27 25 23 21 20 19 18 18 16 15 15 14 15 14
Lifted_Index
2 2 2 3 2 2 2 2 2 2 2 2 3 4 4 5 4 4 3 4 4 4 4 4 4 4 3 3 2 1 1 1 1 1 1 2 2 3 5 6 7 7 7
2 2 2 3 3 2 2 2 2 2 2 2 3 4 4 4 4 4 4 4 4 4 4 4 3 3 3 2 1 1 1 1 0 0 1 1 2 3 4 5 6 6 7
1 1 2 2 3 3 3 3 2 2 2 2 3 3 3 4 4 4 4 4 3 3 3 2 2 2 2 2 1 0 0 0 0 -0 -0 0 1 2 2 3 4 5 5
0 1 1 1 2 3 3 3 3 2 2 2 3 3 3 3 4 4 4 4 3 3 2 2 2 2 2 1 1 1 0 0 0 0 -0 0 1 1 2 2 3 3 4
0 0 0 1 1 3 3 3 3 3 2 2 3 3 3 4 4 5 5 5 4 3 3 2 2 2 1 1 1 1 1 0 0 0 0 0 1 1 1 1 2 2 2
0 0 -0 -0 0 2 3 3 3 3 3 2 3 3 3 4 4 5 5 5 4 4 4 3 2 2 1 1 1 1 1 0 -0 -0 0 0 1 1 1 1 1 1 2
1 0 -0 -0 -0 1 2 3 3 3 3 3 3 3 3 3 4 4 5 5 4 4 4 4 3 2 1 1 1 1 1 1 0 0 0 0 0 1 1 1 1 1 1
1 1 0 0 -0 0 1 2 3 3 3 3 3 3 3 3 3 4 4 4 4 4 4 4 4 3 2 2 1 1 1 1 1 0 0 0 1 1 1 1 1 1 1
1 1 1 1 -0 -0 0 1 2 3 3 3 3 3 3 3 3 3 3 3 3 3 4 4 3 3 2 2 2 1 1 1 1 1 1 1 1 2 2 1 1 1 1
1 1 1 1 0 -0 -0 0 1 2 3 3 3 3 3 2 2 2 3 3 3 3 3 3 3 3 2 2 2 2 1 1 1 1 1 2 2 2 2 1 1 1 1
1 1 1 0 0 -0 -0 -0 -0 0 1 2 2 3 3 3 3 3 3 3 3 3 3 3 3 2 2 2 2 1 1 1 1 2 2 2 2 2 1 0 0 0 1
1 0 0 0 0 -0 -0 -0 -1 -0 -0 0 1 1 2 2 2 2 3 3 3 3 3 3 3 3 2 2 2 1 1 1 2 2 2 2 2 1 1 0 0 1 1
1 1 0 0 0 -0 -0 -1 -1 -1 -1 -1 -0 -0 0 1 1 1 2 3 3 3 2 2 2 2 2 2 1 1 1 1 1 2 2 2 1 1 1 1 1 2 3
1 1 1 0 0 -0 -0 -1 -1 -1 -1 -1 -1 -1 -1 -1 -0 0 1 1 2 2 2 2 2 2 1 1 1 1 0 0 1 1 1 1 1 1 2 2 3 4 4
1 1 1 1 1 0 -0 -1 -1 -1 -1 -0 -0 -1 -1 -1 -1 -0 -0 0 1 1 1 1 1 1 1 0 0 -0 -0 -0 0 1 1 1 1 2 3 3 4 5 5
1 1 1 1 1 0 0 -0 -1 -1 -0 -0 -0 -1 -1 -1 -1 -1 -1 -0 -0 0 0 0 0 0 -0 -0 -1 -1 -1 -1 0 1 1 1 2 3 4 5 6 7 7
1 1 1 1 0 0 -0 -0 -0 -1 -0 -0 -0 -0 -1 -1 -1 -1 -1 -1 -1 -1 -0 -0 -0 -1 -1 -1 -1 -1 -1 -0 0 1 2 2 3 4 5 6 7 8 9
1 1 1 1 0 0 -0 -0 -0 -1 -1 -1 -1 -1 -1 -1 -1 -1 -1 -1 -1 -1 -1 -1 -1 -1 -1 -1 -1 -1 -0 0 1 2 3 4 5 6 6 7 8 10 10
1 1 1 1 1 0 -0 -0 -1 -1 -1 -1 -1 -1 -1 -1 -1 -1 -1 -1 -1 -1 -1 -1 -1 -1 -0 -0 0 0 1 1 2 3 5 5 6 7 8 9 9 10 11
1 1 1 1 1 0 0 -0 -1 -1 -1 -1 -2 -2 -2 -2 -2 -2 -2 -1 -1 -1 -0 -0 0 1 1 1 2 2 2 3 4 5 6 7 8 9 10 11 11 12 12
1 1 1 1 1 1 0 -0 -1 -1 -1 -2 -2 -3 -3 -3 -2 -2 -2 -1 -1 -0 0 1 1 2 3 4 4 5 5 5 6 6 8 9 11 12 12 13 13 15 16
1 2 2 2 1 1 1 0 -0 -0 -1 -2 -3 -3 -3 -3 -2 -2 -1 -1 -0 0 1 1 2 4 5 6 7 8 8 8 9 9 10 12 13 13 14 15 16 18 19
1 1 2 2 1 1 0 0 -0 -1 -2 -2 -3 -3 -3 -2 -1 -1 -0 0 1 1 2 3 4 5 7 8 9 10 11 11 11 12 13 13 14 15 16 18 19 20 20
0 1 1 1 0 0 -0 -1 -1 -2 -2 -3 -3 -2 -2 -1 -0 1 1 2 3 4 5 6 6 7 8 10 11 12 13 13 13 13 14 14 15 17 19 20 20 20 20
0 0 0 -0 -0 -1 -1 -2 -2 -2 -2 -2 -1 -1 0 1 2 2 3 5 6 7 8 9 9 10 10 12 13 13 14 14 14 14 15 15 16 18 19 20 20 21 21
0 0 0 -0 -1 -1 -2 -2 -2 -2 -2 -1 0 1 2 3 3 4 5 7 9 10 10 11 11 12 12 13 14 14 14 14 15 15 15 16 17 18 19 19 20 21 21